timestamp,surface_pressure_avg,surface_temp_avg,battery_voltage,lat,long
2019-10-01 00:00:00+00:00,374.1195,9.9,12.97,47.84626,-54.09684
2019-10-01 00:10:00+00:00,379.0229,9.89,12.89,47.84626,-54.09684
2019-10-01 00:20:00+00:00,382.7513,9.9,12.97,47.84626,-54.09684
2019-10-01 00:30:00+00:00,384.6796,9.9,12.97,47.84626,-54.09684
2019-10-01 00:40:00+00:00,385.058,9.9,12.97,47.84626,-54.09684
2019-10-01 00:50:00+00:00,383.9663,9.86,12.97,47.84626,-54.09684
2019-10-01 01:00:00+00:00,384.6529,9.8,12.89,47.84626,-54.09684
2019-10-01 01:10:00+00:00,383.2596,9.8,12.81,47.84626,-54.09684
2019-10-01 01:20:00+00:00,382.8044,9.8,12.97,47.84626,-54.09684
2019-10-01 01:30:00+00:00,384.4947,9.8,12.97,47.84626,-54.09684
2019-10-01 01:40:00+00:00,385.1595,9.8,12.97,47.84626,-54.09684
2019-10-01 01:50:00+00:00,382.5363,9.8,12.97,47.84626,-54.09684
2019-10-01 02:00:00+00:00,379.2845,9.82,12.89,47.84626,-54.09684
2019-10-01 02:10:00+00:00,378.4595,9.82,12.81,47.84626,-54.09684
2019-10-01 02:20:00+00:00,375.4046,9.82,12.97,47.84626,-54.09684
2019-10-01 02:30:00+00:00,370.8297,9.81,12.97,47.84626,-54.09684
2019-10-01 02:40:00+00:00,367.3196,9.8,12.97,47.84626,-54.09684
2019-10-01 02:50:00+00:00,364.1046,9.81,12.97,47.84626,-54.09684
2019-10-01 03:00:00+00:00,355.4413,9.85,12.89,47.84626,-54.09684
2019-10-01 03:10:00+00:00,345.4096,9.89,12.81,47.84626,-54.09684
2019-10-01 03:20:00+00:00,340.3446,9.89,12.97,47.84626,-54.09684
2019-10-01 03:30:00+00:00,334.9813,9.88,12.97,47.84626,-54.09684
2019-10-01 03:40:00+00:00,323.6663,9.86,12.97,47.84626,-54.09684
2019-10-01 03:50:00+00:00,310.5896,9.81,12.97,47.84626,-54.09684
2019-10-01 04:00:00+00:00,300.8214,9.8,12.89,47.84626,-54.09684
2019-10-01 04:10:00+00:00,290.738,9.8,12.81,47.84626,-54.09684
2019-10-01 04:20:00+00:00,275.8797,9.82,12.97,47.84626,-54.09684
2019-10-01 04:30:00+00:00,261.6597,9.8,12.97,47.84626,-54.09684
2019-10-01 04:40:00+00:00,250.3014,9.7,12.97,47.84626,-54.09684
2019-10-01 04:50:00+00:00,238.1548,9.7,12.97,47.84626,-54.09684
2019-10-01 05:00:00+00:00,223.4881,9.7,12.89,47.84626,-54.09684
2019-10-01 05:10:00+00:00,211.9931,9.7,12.81,47.84626,-54.09684
2019-10-01 05:20:00+00:00,205.3748,9.7,12.97,47.84626,-54.09684
2019-10-01 05:30:00+00:00,196.9915,9.7,12.97,47.84626,-54.09684
2019-10-01 05:40:00+00:00,188.7664,9.75,12.97,47.84626,-54.09684
2019-10-01 05:50:00+00:00,186.9098,9.78,12.97,47.84626,-54.09684
2019-10-01 06:00:00+00:00,184.6964,9.79,12.89,47.84626,-54.09684
2019-10-01 06:10:00+00:00,180.2698,9.77,12.81,47.84626,-54.09684
2019-10-01 06:20:00+00:00,175.0715,9.73,12.89,47.84626,-54.09684
2019-10-01 06:30:00+00:00,174.3414,9.7,12.97,47.84626,-54.09684
2019-10-01 06:40:00+00:00,175.9565,9.7,12.97,47.84626,-54.09684
2019-10-01 06:50:00+00:00,177.8482,9.71,12.97,47.84626,-54.09684
2019-10-01 07:00:00+00:00,178.8298,9.74,12.89,47.84626,-54.09684
2019-10-01 07:10:00+00:00,179.7982,9.75,12.81,47.84626,-54.09684
2019-10-01 07:20:00+00:00,183.6481,9.77,12.89,47.84626,-54.09684
2019-10-01 07:30:00+00:00,186.4915,9.78,12.89,47.84626,-54.09684
2019-10-01 07:40:00+00:00,189.0998,9.79,12.97,47.84626,-54.09684
2019-10-01 07:50:00+00:00,194.1598,9.79,12.97,47.84626,-54.09684
2019-10-01 08:00:00+00:00,200.8231,9.76,12.89,47.84626,-54.09684
2019-10-01 08:10:00+00:00,206.1997,9.78,12.81,47.84626,-54.09684
2019-10-01 08:20:00+00:00,207.9414,9.79,12.89,47.84626,-54.09684
2019-10-01 08:30:00+00:00,210.6414,9.8,12.89,47.84626,-54.09684
2019-10-01 08:40:00+00:00,216.3031,9.79,12.97,47.84626,-54.09684
2019-10-01 08:50:00+00:00,219.3398,9.78,12.97,47.84626,-54.09684
2019-10-01 09:00:00+00:00,222.8848,9.75,12.89,47.84626,-54.09684
2019-10-01 09:10:00+00:00,229.7015,9.7,12.81,47.84626,-54.09684
2019-10-01 09:20:00+00:00,235.7281,9.7,12.89,47.84626,-54.09684
2019-10-01 09:30:00+00:00,239.6964,9.7,12.89,47.84626,-54.09684
2019-10-01 09:40:00+00:00,244.8331,9.7,12.97,47.84626,-54.09684
2019-10-01 09:50:00+00:00,252.2114,9.7,12.97,47.84626,-54.09684
2019-10-01 10:00:00+00:00,258.0565,9.68,12.89,47.84626,-54.09684
2019-10-01 10:10:00+00:00,261.1331,9.6,12.81,47.84626,-54.09684
2019-10-01 10:20:00+00:00,267.9847,9.6,12.89,47.84626,-54.09684
2019-10-01 10:30:00+00:00,276.8631,9.6,12.97,47.84626,-54.09684
2019-10-01 10:40:00+00:00,283.3331,9.6,12.97,47.84626,-54.09684
2019-10-01 10:50:00+00:00,289.3547,9.6,13.05,47.84626,-54.09684
2019-10-01 11:00:00+00:00,301.0547,9.6,13.05,47.84626,-54.09684
2019-10-01 11:10:00+00:00,311.2014,9.6,13.05,47.84626,-54.09684
2019-10-01 11:20:00+00:00,319.2697,9.6,13.29,47.84626,-54.09684
2019-10-01 11:30:00+00:00,328.8513,9.57,13.53,47.84626,-54.09684
2019-10-01 11:40:00+00:00,341.0513,9.59,13.92,47.84626,-54.09684
2019-10-01 11:50:00+00:00,350.553,9.6,14.24,47.84626,-54.09684
2019-10-01 12:00:00+00:00,355.668,9.6,14.16,47.84626,-54.09684
2019-10-01 12:10:00+00:00,363.408,9.6,14.24,47.84626,-54.09684
2019-10-01 12:20:00+00:00,372.6196,9.6,14.32,47.84626,-54.09684
2019-10-01 12:30:00+00:00,379.0179,9.6,14.8,47.84626,-54.09684
2019-10-01 12:40:00+00:00,382.7762,9.5,14.72,47.84626,-54.09684
2019-10-01 12:50:00+00:00,390.138,9.5,14.64,47.84626,-54.09684
2019-10-01 13:00:00+00:00,396.3679,9.47,14.48,47.84626,-54.09684
2019-10-01 13:10:00+00:00,396.6763,9.47,14.48,47.84626,-54.09684
2019-10-01 13:20:00+00:00,395.8212,9.5,14.8,47.84626,-54.09684
2019-10-01 13:30:00+00:00,395.6795,9.51,14.8,47.84626,-54.09684
2019-10-01 13:40:00+00:00,394.1096,9.59,14.72,47.84626,-54.09684
2019-10-01 13:50:00+00:00,392.9613,9.6,14.64,47.84626,-54.09684
2019-10-01 14:00:00+00:00,389.1213,9.6,16.63,47.84626,-54.09684
2019-10-01 14:10:00+00:00,384.8412,9.6,14.72,47.84626,-54.09684
2019-10-01 14:20:00+00:00,380.3063,9.6,15.2,47.84626,-54.09684
2019-10-01 14:30:00+00:00,378.9061,9.6,14.72,47.84626,-54.09684
2019-10-01 14:40:00+00:00,377.3179,9.61,15.91,47.84626,-54.09684
2019-10-01 14:50:00+00:00,372.463,9.64,14.56,47.84626,-54.09684
2019-10-01 15:00:00+00:00,366.988,9.66,14.8,47.84626,-54.09684
2019-10-01 15:10:00+00:00,365.9063,9.64,14.56,47.84626,-54.09684
2019-10-01 15:20:00+00:00,359.9163,9.67,14.72,47.84626,-54.09684
2019-10-01 15:30:00+00:00,350.1546,9.69,14.96,47.84626,-54.09684
2019-10-01 15:40:00+00:00,340.6047,9.7,15.11,47.84626,-54.09684
2019-10-01 15:50:00+00:00,331.0713,9.6,14.4,47.84626,-54.09684
2019-10-01 16:00:00+00:00,317.4731,9.6,14.48,47.84626,-54.09684
2019-10-01 16:10:00+00:00,302.838,9.6,14.48,47.84626,-54.09684
2019-10-01 16:20:00+00:00,296.3214,9.6,14.48,47.84626,-54.09684
2019-10-01 16:30:00+00:00,287.0581,9.6,14.32,47.84626,-54.09684
2019-10-01 16:40:00+00:00,273.6965,9.6,14.32,47.84626,-54.09684
2019-10-01 16:50:00+00:00,259.8298,9.67,14.48,47.84626,-54.09684
2019-10-01 17:00:00+00:00,251.6397,9.68,14.4,47.84626,-54.09684
2019-10-01 17:10:00+00:00,239.0697,9.69,14.32,47.84626,-54.09684
2019-10-01 17:20:00+00:00,222.9581,9.7,14.32,47.84626,-54.09684
2019-10-01 17:30:00+00:00,213.4814,9.7,14.48,47.84626,-54.09684
2019-10-01 17:40:00+00:00,207.1681,9.7,14.48,47.84626,-54.09684
2019-10-01 17:50:00+00:00,195.0698,9.7,14.56,47.84626,-54.09684
2019-10-01 18:00:00+00:00,186.6564,9.7,14.32,47.84626,-54.09684
2019-10-01 18:10:00+00:00,182.3531,9.7,14.16,47.84626,-54.09684
2019-10-01 18:20:00+00:00,176.6365,9.7,14.24,47.84626,-54.09684
2019-10-01 18:30:00+00:00,170.1981,9.7,14.16,47.84626,-54.09684
2019-10-01 18:40:00+00:00,169.4281,9.7,14.24,47.84626,-54.09684
2019-10-01 18:50:00+00:00,168.5898,9.7,14.24,47.84626,-54.09684
2019-10-01 19:00:00+00:00,165.1032,9.7,14.08,47.84626,-54.09684
2019-10-01 19:10:00+00:00,164.0531,9.7,14.0,47.84626,-54.09684
2019-10-01 19:20:00+00:00,167.0298,9.7,14.08,47.84626,-54.09684
2019-10-01 19:30:00+00:00,167.5281,9.7,14.0,47.84626,-54.09684
2019-10-01 19:40:00+00:00,169.2831,9.7,14.08,47.84626,-54.09684
2019-10-01 19:50:00+00:00,176.5882,9.7,14.0,47.84626,-54.09684
2019-10-01 20:00:00+00:00,181.1031,9.7,13.92,47.84626,-54.09684
2019-10-01 20:10:00+00:00,184.8115,9.7,13.76,47.84626,-54.09684
2019-10-01 20:20:00+00:00,190.7565,9.7,13.76,47.84626,-54.09684
2019-10-01 20:30:00+00:00,194.9298,9.71,13.68,47.84626,-54.09684
2019-10-01 20:40:00+00:00,200.5181,9.72,13.68,47.84626,-54.09684
2019-10-01 20:50:00+00:00,206.5064,9.73,13.68,47.84626,-54.09684
2019-10-01 21:00:00+00:00,208.9182,9.7,13.53,47.84626,-54.09684
2019-10-01 21:10:00+00:00,209.9615,9.7,13.37,47.84626,-54.09684
2019-10-01 21:20:00+00:00,215.3731,9.7,13.37,47.84626,-54.09684
2019-10-01 21:30:00+00:00,221.1431,9.7,13.29,47.84626,-54.09684
2019-10-01 21:40:00+00:00,222.5631,9.7,13.29,47.84626,-54.09684
2019-10-01 21:50:00+00:00,224.3948,9.68,13.29,47.84626,-54.09684
2019-10-01 22:00:00+00:00,229.4631,9.64,13.21,47.84626,-54.09684
2019-10-01 22:10:00+00:00,234.4547,9.65,13.05,47.84626,-54.09684
2019-10-01 22:20:00+00:00,238.1631,9.67,13.05,47.84626,-54.09684
2019-10-01 22:30:00+00:00,242.643,9.67,13.05,47.84626,-54.09684
2019-10-01 22:40:00+00:00,248.7998,9.62,13.05,47.84626,-54.09684
2019-10-01 22:50:00+00:00,257.8464,9.6,13.05,47.84626,-54.09684
2019-10-01 23:00:00+00:00,266.0914,9.6,12.97,47.84626,-54.09684
2019-10-01 23:10:00+00:00,274.3363,9.59,12.89,47.84626,-54.09684
2019-10-01 23:20:00+00:00,283.1064,9.5,12.97,47.84626,-54.09684
2019-10-01 23:30:00+00:00,294.0497,9.5,12.97,47.84626,-54.09684
2019-10-01 23:40:00+00:00,302.5798,9.51,12.97,47.84626,-54.09684
2019-10-01 23:50:00+00:00,310.0663,9.58,12.97,47.84626,-54.09684
